FW9465 Weather Reports


Display with metric or nautical units.
time (UTC)temp
F
wind
direction
speed
MPH
gust
MPH
rain 1hr
in
rain 24hr
in
rain mn
in
humidity
%
barometer
mb
20260507020036 62 35 7.0 10.0 0.00 0.07 0.07 72 1015.4
20260507015033 62 24 5.0 7.0 0.00 0.07 0.07 70 1015.4
20260507014049 62 18 9.0 11.0 0.00 0.07 0.07 70 1014.9
20260507013135 63 22 6.0 8.0 0.00 0.07 0.07 70 1014.8
20260507011133 63 21 6.0 10.0 0.00 0.07 0.07 70 1014.5
20260507010133 63 20 9.0 12.0 0.00 0.07 0.07 70 1014.2
20260507005132 64 20 4.0 8.0 0.00 0.07 0.07 69 1014.2
20260507004132 64 11 7.0 9.0 0.00 0.07 0.07 68 1014.1
20260507003151 64 14 10.0 14.0 0.00 0.07 0.07 67 1013.9
20260507002233 65 9 6.0 10.0 0.00 0.07 0.07 67 1014.1
20260507001249 65 15 8.0 11.0 0.00 0.07 0.07 66 1013.8
20260507000234 64 5 9.0 12.0 0.00 0.07 0.07 74 1013.8
20260506235234 64 48 0.0 3.0 0.00 0.07 0.07 73 1013.8
20260506234250 64 45 1.0 4.0 0.00 0.07 0.07 74 1013.7
20260506233233 63 45 2.0 3.0 0.00 0.07 0.07 74 1013.3
20260506231233 63 72 0.0 4.0 0.00 0.07 0.07 75 1013.3
20260506230332 63 67 3.0 4.0 0.00 0.07 0.07 73 1013.2
20260506224332 62 84 5.0 6.0 0.00 0.07 0.07 75 1013.4
20260506223432 62 67 1.0 3.0 0.03 0.07 0.07 75 1013.3
20260506222432 62 93 3.0 6.0 0.03 0.07 0.07 77 1013.4
20260506221432 61 99 1.0 3.0 0.03 0.07 0.07 79 1013.5
20260506215432 60 45 4.0 6.0 0.03 0.07 0.07 80 1013.2
20260506214435 60 39 1.0 3.0 0.03 0.07 0.07 78 1013.6
20260506213531 61 359 4.0 6.0 0.00 0.04 0.04 74 1013.4
20260506212532 61 22 6.0 8.0 0.00 0.04 0.04 70 1013.6
20260506211534 61 360 7.0 8.0 0.00 0.04 0.04 70 1013.6
20260506210631 61 22 3.0 5.0 0.00 0.04 0.04 69 1013.3
20260506205634 61 11 6.0 7.0 0.00 0.04 0.04 69 1013.6
20260506204732 61 330 7.0 9.0 0.00 0.04 0.04 70 1013.8
20260506202732 60 44 8.0 11.0 0.00 0.04 0.04 70 1013.6
20260506201732 60 14 8.0 11.0 0.00 0.04 0.04 71 1013.9
20260506195731 60 9 6.0 10.0 0.00 0.04 0.04 70 1014.4
20260506194748 59 17 4.0 8.0 0.00 0.04 0.04 71 1014.5
20260506193834 59 346 6.0 9.0 0.00 0.04 0.04 72 1014.6
20260506192932 58 8 7.0 9.0 0.00 0.04 0.04 73 1014.8
20260506191948 58 346 3.0 9.0 0.00 0.04 0.04 73 1014.9
20260506191031 57 21 3.0 5.0 0.00 0.04 0.04 74 1014.9
20260506185033 56 22 4.0 7.0 0.00 0.04 0.04 76 1015.2
20260506184033 56 12 1.0 4.0 0.00 0.04 0.04 76 1015.4
20260506183033 56 345 3.0 7.0 0.00 0.04 0.04 76 1015.0
20260506182048 56 350 5.0 8.0 0.00 0.04 0.04 77 1014.4
20260506181131 55 3 12.0 19.0 0.00 0.04 0.04 78 1013.7
20260506180132 55 336 10.0 15.0 0.00 0.04 0.04 80 1013.7
20260506174133 54 348 13.0 17.0 0.00 0.04 0.04 81 1014.1
20260506173131 54 342 4.0 10.0 0.01 0.04 0.04 83 1014.6
20260506172230 53 354 4.0 8.0 0.01 0.04 0.04 83 1014.6
20260506171233 53 5 5.0 9.0 0.01 0.04 0.04 84 1014.5
20260506170232 53 8 9.0 14.0 0.01 0.04 0.04 85 1014.5
20260506165331 53 10 10.0 14.0 0.01 0.04 0.04 84 1014.1
20260506164248 53 5 9.0 14.0 0.01 0.04 0.04 84 1014.4
20260506162332 52 359 6.0 11.0 0.00 0.03 0.03 86 1014.6
20260506161334 52 358 10.0 14.0 0.00 0.03 0.03 86 1014.6
20260506160431 52 24 7.0 11.0 0.00 0.03 0.03 89 1014.2
20260506155449 52 353 6.0 11.0 0.00 0.03 0.03 90 1014.4
20260506154431 52 1 11.0 14.0 0.02 0.03 0.03 91 1013.2
20260506153431 51 351 7.0 12.0 0.03 0.03 0.03 91 1013.8
20260506151432 51 342 6.0 11.0 0.03 0.03 0.03 90 1014.8
20260506145433 51 7 8.0 11.0 0.03 0.03 0.03 87 1014.8
20260506144431 51 320 6.0 9.0 0.01 0.01 0.01 85 1016.1
20260506143432 51 335 3.0 7.0 0.00 0.00 0.00 84 1015.8
20260506142431 51 340 5.0 9.0 0.00 0.00 0.00 84 1015.9
20260506140432 52 348 7.0 13.0 0.00 0.00 0.00 83 1013.9
20260506135431 52 339 8.0 13.0 0.00 0.00 0.00 83 1014.5
20260506134433 52 313 10.0 14.0 0.00 0.00 0.00 83 1014.9
20260506133432 52 13 12.0 17.0 0.00 0.00 0.00 82 1014.0
20260506131449 52 359 8.0 10.0 0.00 0.00 0.00 81 1013.6
20260506130531 52 1 7.0 12.0 0.00 0.00 0.00 81 1013.7
20260506125533 53 12 10.0 16.0 0.00 0.00 0.00 80 1013.0
20260506124535 53 353 9.0 14.0 0.00 0.00 0.00 78 1012.8
20260506123531 53 342 11.0 17.0 0.00 0.00 0.00 78 1012.8
20260506121631 54 345 7.0 12.0 0.00 0.00 0.00 76 1012.9
20260506120632 54 352 9.0 12.0 0.00 0.00 0.00 76 1012.4
20260506115631 55 359 11.0 15.0 0.00 0.00 0.00 77 1012.4
20260506113633 55 355 9.0 12.0 0.00 0.00 0.00 76 1012.2
20260506112731 55 354 9.0 14.0 0.00 0.00 0.00 75 1012.2
20260506110831 56 356 7.0 13.0 0.00 0.00 0.00 75 1011.9
20260506105830 56 358 7.0 9.0 0.00 0.00 0.00 75 1011.5
20260506104832 56 346 7.0 12.0 0.00 0.00 0.00 75 1011.6
20260506103830 56 341 7.0 11.0 0.00 0.00 0.00 75 1011.3
20260506102832 56 352 5.0 10.0 0.00 0.00 0.00 77 1011.2
20260506101831 56 328 11.0 13.0 0.00 0.00 0.00 77 1011.2
20260506095931 56 4 6.0 9.0 0.00 0.00 0.00 75 1010.7
20260506094031 57 347 5.0 7.0 0.00 0.00 0.00 76 1010.5
20260506093034 57 342 6.0 9.0 0.00 0.00 0.00 77 1010.6
20260506092030 57 344 5.0 9.0 0.00 0.00 0.00 77 1010.4
20260506091033 57 348 9.0 11.0 0.00 0.00 0.00 78 1010.3
20260506090034 57 340 6.0 8.0 0.00 0.00 0.00 77 1010.5
20260506085047 57 334 7.0 10.0 0.00 0.00 0.00 78 1010.4
20260506084129 57 2 6.0 8.0 0.00 0.00 0.00 78 1010.3
20260506083132 57 357 9.0 12.0 0.00 0.00 0.00 79 1010.2
20260506082147 58 351 9.0 12.0 0.00 0.00 0.00 78 1010.0
20260506081231 58 341 8.0 12.0 0.00 0.00 0.00 79 1010.0
20260506080231 58 345 8.0 11.0 0.00 0.00 0.00 78 1010.0
20260506072247 59 7 5.0 7.0 0.00 0.00 0.00 80 1009.8
20260506071232 59 19 10.0 14.0 0.00 0.00 0.00 80 1009.6
20260506070330 59 28 7.0 9.0 0.00 0.00 0.00 80 1009.6
20260506062431 60 12 10.0 13.0 0.00 0.00 0.00 79 1009.7
20260506061432 60 12 7.0 10.0 0.00 0.00 0.00 78 1009.6
20260506060431 60 11 11.0 14.0 0.00 0.00 0.00 78 1009.5
20260506050432 62 2 8.0 12.0 0.00 0.00 0.00 76 1009.8
20260506044536 64 15 7.0 10.0 0.00 0.00 0.00 76 1009.7
20260506043534 64 357 11.0 15.0 0.00 0.00 0.00 74 1009.2
20260506042534 64 3 6.0 10.0 0.00 0.00 0.00 74 1009.2
20260506041536 65 17 10.0 15.0 0.00 0.00 0.00 74 1009.6
20260506040533 65 12 9.0 12.0 0.00 0.00 0.00 72 1009.6
20260506034535 66 332 10.0 14.0 0.00 0.00 0.00 73 1009.2
20260506033634 66 355 10.0 14.0 0.00 0.00 0.00 71 1008.7
20260506032634 66 347 9.0 14.0 0.00 0.00 0.00 71 1008.7
20260506030650 67 3 10.0 14.0 0.00 0.00 0.00 71 1008.2
20260506025635 67 25 10.0 14.0 0.00 0.00 0.00 70 1007.9
20260506023733 67 10 12.0 17.0 0.00 0.00 0.00 69 1007.8
20260506022733 68 20 9.0 12.0 0.00 0.00 0.00 70 1007.5
20260506021735 69 348 10.0 13.0 0.00 0.00 0.00 70 1007.4
20260506020832 69 330 8.0 12.0 0.00 0.00 0.00 70 1007.3